GW2617 Weather Reports


time (UTC)temp
C
wind
direction
speed
KPH
gust
KPH
rain 1hr
cm
rain 24hr
cm
rain mn
cm
humidity
%
barometer
mb
20260906172244 31 134 12.9 12.9 0.00 0.00 0.00 69 1019.5
20260906171744 31 100 6.4 9.7 0.00 0.00 0.00 72 1019.7
20260906171239 31 175 4.8 6.4 0.00 0.00 0.00 69 1019.7
20260906170735 31 150 6.4 6.4 0.00 0.00 0.00 72 1019.8
20260906170230 30 153 11.3 12.9 0.00 0.00 0.00 74 1019.8
20260906165727 30 131 14.5 16.1 0.00 0.00 0.00 73 1019.7
20260906165227 30 98 9.7 11.3 0.00 0.00 0.00 75 1019.9
20260906164726 30 110 11.3 12.9 0.00 0.00 0.00 73 1019.8
20260906164227 30 121 11.3 12.9 0.00 0.00 0.00 74 1019.7
20260906163723 30 126 9.7 9.7 0.00 0.00 0.00 76 1019.7
20260906163219 30 111 12.9 14.5 0.00 0.00 0.00 77 1019.8
20260906162716 30 155 8.0 9.7 0.00 0.00 0.00 76 1020.1
20260906162216 29 136 12.9 14.5 0.00 0.00 0.00 78 1019.9
20260906161710 28 92 4.8 6.4 0.00 0.00 0.00 79 1019.9
20260906161210 28 133 6.4 6.4 0.00 0.00 0.00 78 1020.1
20260906160709 28 85 6.4 6.4 0.00 0.00 0.00 79 1019.9
20260906160208 28 144 12.9 12.9 0.00 0.00 0.00 81 1020.1
20260906155706 27 116 12.9 12.9 0.00 0.00 0.00 81 1020.2
20260906155201 27 126 14.5 14.5 0.00 0.00 0.00 82 1020.1
20260906154656 27 112 11.3 12.9 0.00 0.00 0.00 85 1020.3
20260906154156 27 116 14.5 14.5 0.00 0.00 0.00 84 1020.1
20260906153655 27 93 8.0 9.7 0.00 0.00 0.00 85 1020.1
20260906153156 27 120 11.3 12.9 0.00 0.00 0.00 84 1019.9
20260906152651 26 99 11.3 12.9 0.00 0.00 0.00 87 1020.0
20260906152150 26 119 8.0 9.7 0.00 0.00 0.00 86 1019.9
20260906151645 26 133 6.4 6.4 0.00 0.00 0.00 88 1020.2
20260906151141 26 127 14.5 14.5 0.00 0.00 0.00 86 1019.9
20260906150636 26 112 12.9 14.5 0.00 0.00 0.00 88 1020.0
20260906150131 26 121 9.7 11.3 0.00 0.00 0.00 87 1020.2
20260906145630 26 122 9.7 11.3 0.00 0.00 0.00 88 1020.1
20260906145125 26 115 8.0 9.7 0.00 0.00 0.00 89 1020.2
20260906144620 26 109 6.4 6.4 0.00 0.00 0.00 90 1020.6
20260906144115 25 114 9.7 11.3 0.00 0.00 0.00 90 1020.6
20260906143614 25 124 6.4 6.4 0.00 0.00 0.00 90 1020.6
20260906143112 25 125 9.7 9.7 0.00 0.00 0.00 90 1020.5
20260906142610 25 34 9.7 11.3 0.00 0.00 0.00 90 1020.5
20260906142106 25 105 4.8 6.4 0.00 0.00 0.00 91 1020.6
20260906141604 25 146 4.8 4.8 0.00 0.00 0.00 92 1020.3
20260906141100 25 99 8.0 9.7 0.00 0.00 0.00 92 1020.1
20260906140559 25 124 6.4 6.4 0.00 0.00 0.00 92 1020.5
20260906140054 25 144 14.5 17.7 0.00 0.00 0.00 92 1020.3
20260906135551 25 128 8.0 11.3 0.00 0.00 0.00 93 1020.5
20260906135047 25 132 9.7 11.3 0.00 0.00 0.00 93 1020.2
20260906134542 25 126 9.7 11.3 0.00 0.00 0.00 93 1020.3
20260906134037 25 126 11.3 12.9 0.00 0.00 0.00 93 1020.2
20260906133533 25 127 9.7 11.3 0.00 0.00 0.00 93 1020.2
20260906133028 25 149 12.9 12.9 0.00 0.00 0.00 93 1020.2
20260906132523 25 128 9.7 11.3 0.00 0.00 0.00 94 1020.0
20260906132019 25 115 12.9 14.5 0.00 0.00 0.00 94 1020.0
20260906131514 25 83 9.7 11.3 0.00 0.00 0.00 94 1020.0
20260906131010 25 101 9.7 11.3 0.00 0.00 0.00 94 1020.2
20260906130509 25 125 6.4 6.4 0.00 0.00 0.00 95 1020.0
20260906130004 25 137 9.7 11.3 0.00 0.00 0.00 95 1020.0
20260906125501 25 137 8.0 11.3 0.00 0.00 0.00 95 1020.0
20260906125001 25 113 9.7 12.9 0.00 0.00 0.00 95 1020.0
20260906124456 25 124 9.7 11.3 0.00 0.00 0.00 95 1020.0
20260906123951 25 124 8.0 9.7 0.00 0.00 0.00 95 1019.9
20260906123450 24 141 9.7 9.7 0.00 0.00 0.00 96 1019.8
20260906122950 24 135 8.0 9.7 0.00 0.00 0.00 96 1019.8
20260906122445 24 117 6.4 9.7 0.00 0.00 0.00 96 1019.7
20260906121942 24 63 4.8 4.8 0.00 0.00 0.00 96 1019.6
20260906121438 24 96 12.9 12.9 0.00 0.00 0.00 96 1019.5
20260906120934 24 128 9.7 9.7 0.00 0.00 0.00 96 1019.5
20260906120429 24 133 11.3 12.9 0.00 0.00 0.00 96 1019.4
20260906115925 24 107 8.0 9.7 0.00 0.00 0.00 96 1019.2
20260906115421 24 138 8.0 9.7 0.00 0.00 0.00 96 1019.3
20260906114921 24 130 6.4 6.4 0.00 0.00 0.00 96 1019.3
20260906114421 24 130 9.7 9.7 0.00 0.00 0.00 96 1019.0
20260906113917 24 127 14.5 14.5 0.00 0.00 0.00 96 1019.1
20260906113415 24 112 6.4 9.7 0.00 0.00 0.00 96 1018.8
20260906112911 24 129 12.9 12.9 0.00 0.00 0.00 96 1018.8
20260906112406 24 136 6.4 6.4 0.00 0.00 0.00 96 1019.0
20260906111901 24 115 6.4 6.4 0.00 0.00 0.00 96 1019.2
20260906111401 24 103 8.0 6.4 0.00 0.00 0.00 96 1019.2
20260906110856 24 136 9.7 11.3 0.00 0.00 0.00 96 1019.1
20260906110351 24 124 11.3 12.9 0.00 0.00 0.00 96 1019.0
20260906105850 24 96 6.4 6.4 0.00 0.00 0.00 96 1018.8
20260906105346 24 119 8.0 11.3 0.00 0.00 0.00 96 1018.9
20260906104842 24 98 8.0 9.7 0.00 0.00 0.00 96 1018.9
20260906104340 24 92 8.0 11.3 0.00 0.00 0.00 96 1018.9
20260906103839 24 125 9.7 11.3 0.00 0.00 0.00 96 1018.7
20260906103338 24 115 9.7 12.9 0.00 0.00 0.00 96 1018.8
20260906102834 24 119 8.0 9.7 0.00 0.00 0.00 96 1018.8
20260906102332 24 107 6.4 6.4 0.00 0.00 0.00 96 1018.9
20260906101828 24 109 8.0 9.7 0.00 0.00 0.00 96 1018.6
20260906101323 24 103 4.8 4.8 0.00 0.00 0.00 96 1018.7
20260906100819 24 131 4.8 4.8 0.00 0.00 0.00 96 1018.9
20260906100317 24 118 3.2 3.2 0.00 0.00 0.00 96 1018.6
20260906095813 24 122 4.8 4.8 0.00 0.00 0.00 96 1018.8
20260906095308 24 119 3.2 3.2 0.00 0.00 0.00 96 1018.6
20260906094807 24 96 1.6 1.6 0.00 0.00 0.00 96 1018.9
20260906094302 24 117 6.4 4.8 0.00 0.00 0.00 96 1018.7
20260906093759 24 105 1.6 3.2 0.00 0.00 0.00 96 1018.6
20260906093254 24 126 4.8 4.8 0.00 0.00 0.00 96 1018.6
20260906092750 24 93 3.2 3.2 0.00 0.00 0.00 96 1018.5
20260906092250 24 111 3.2 4.8 0.00 0.00 0.00 96 1018.5
20260906091745 24 108 3.2 3.2 0.00 0.00 0.00 95 1018.3
20260906091241 24 98 4.8 4.8 0.00 0.00 0.00 95 1018.2
20260906090738 24 120 1.6 1.6 0.00 0.00 0.00 95 1018.1
20260906090237 24 101 4.8 4.8 0.00 0.00 0.00 95 1018.3
20260906085736 24 102 0.0 0.0 0.00 0.00 0.00 95 1018.1
20260906085235 24 122 1.6 3.2 0.00 0.00 0.00 94 1018.1
20260906084731 24 123 3.2 3.2 0.00 0.00 0.00 94 1018.0
20260906084231 25 119 6.4 6.4 0.00 0.00 0.00 94 1017.9
20260906083725 25 129 4.8 4.8 0.00 0.00 0.00 94 1018.1
20260906083221 25 140 4.8 4.8 0.00 0.00 0.00 94 1018.1
20260906082716 25 151 3.2 3.2 0.00 0.00 0.00 93 1018.1
20260906082211 25 143 4.8 4.8 0.00 0.00 0.00 93 1018.0
20260906081707 25 129 1.6 1.6 0.00 0.00 0.00 93 1018.0
20260906081202 25 135 3.2 3.2 0.00 0.00 0.00 93 1018.1
20260906080658 25 107 1.6 1.6 0.00 0.00 0.00 93 1018.0
20260906080154 25 118 3.2 3.2 0.00 0.00 0.00 93 1018.2
20260906075654 25 119 4.8 4.8 0.00 0.00 0.00 92 1017.9
20260906075148 25 109 9.7 9.7 0.00 0.00 0.00 92 1017.8
20260906074644 25 105 4.8 4.8 0.00 0.00 0.00 92 1018.1
20260906074143 25 109 4.8 9.7 0.00 0.00 0.00 92 1018.1
20260906073637 25 105 4.8 4.8 0.00 0.00 0.00 91 1018.2
20260906073133 25 90 6.4 6.4 0.00 0.00 0.00 91 1018.1
20260906072628 25 94 6.4 6.4 0.00 0.00 0.00 91 1018.0
20260906072124 25 96 1.6 1.6 0.00 0.00 0.00 91 1018.2
20260906071621 25 79 4.8 4.8 0.00 0.00 0.00 91 1018.0
20260906071121 25 88 3.2 3.2 0.00 0.00 0.00 90 1018.0
20260906070617 25 103 4.8 4.8 0.00 0.00 0.00 90 1018.2
20260906070113 25 97 4.8 6.4 0.00 0.00 0.00 90 1018.2
20260906065612 25 99 1.6 1.6 0.00 0.00 0.00 90 1018.2
20260906065108 25 120 3.2 4.8 0.00 0.00 0.00 90 1018.2
20260906064603 25 146 1.6 1.6 0.00 0.00 0.00 89 1018.2
20260906064058 25 147 1.6 1.6 0.00 0.00 0.00 89 1018.3
20260906063553 25 147 0.0 0.0 0.00 0.00 0.00 88 1018.3
20260906063050 25 147 0.0 0.0 0.00 0.00 0.00 88 1018.3
20260906062545 25 147 1.6 1.6 0.00 0.00 0.00 88 1018.3
20260906062044 25 147 1.6 1.6 0.00 0.00 0.00 88 1018.4
20260906061541 26 147 1.6 1.6 0.00 0.00 0.00 87 1018.4
20260906061039 26 147 3.2 3.2 0.00 0.00 0.00 87 1018.6
20260906060536 26 147 3.2 3.2 0.00 0.00 0.00 87 1018.6
20260906060033 26 145 3.2 3.2 0.00 0.00 0.00 87 1018.7
20260906055529 26 116 3.2 3.2 0.00 0.00 0.00 87 1018.4
20260906055024 26 116 3.2 3.2 0.00 0.00 0.00 87 1018.6
20260906054524 26 115 3.2 3.2 0.00 0.00 0.00 87 1018.7
20260906054019 26 115 3.2 4.8 0.00 0.00 0.00 87 1018.6
20260906053515 26 116 3.2 3.2 0.00 0.00 0.00 87 1018.5
20260906053011 26 115 3.2 3.2 0.00 0.00 0.00 87 1018.6
20260906052507 26 114 3.2 3.2 0.00 0.00 0.00 87 1018.5
20260906052004 26 116 1.6 1.6 0.00 0.00 0.00 87 1018.6
20260906051459 26 105 3.2 3.2 0.00 0.00 0.00 87 1018.5
20260906050954 26 115 3.2 3.2 0.00 0.00 0.00 86 1018.7
20260906050454 26 116 3.2 3.2 0.00 0.00 0.00 86 1018.4
20260906045953 26 111 3.2 3.2 0.00 0.00 0.00 86 1018.3
20260906045452 26 99 3.2 4.8 0.00 0.00 0.00 86 1018.3
20260906044948 26 109 1.6 3.2 0.00 0.00 0.00 86 1018.4
20260906044443 26 82 1.6 3.2 0.00 0.00 0.00 86 1018.3
20260906043939 26 78 3.2 3.2 0.00 0.00 0.00 86 1018.5
20260906043435 26 60 3.2 4.8 0.00 0.00 0.00 86 1018.3
20260906042930 26 53 3.2 3.2 0.00 0.00 0.00 85 1018.5
20260906042429 26 60 3.2 3.2 0.00 0.00 0.00 85 1018.3
20260906041924 26 59 6.4 4.8 0.00 0.00 0.00 84 1018.2
20260906041420 26 61 4.8 3.2 0.00 0.00 0.00 84 1018.1
20260906040920 26 60 4.8 4.8 0.00 0.00 0.00 83 1018.2
20260906040416 26 56 6.4 4.8 0.00 0.00 0.00 83 1018.0
20260906035911 26 61 4.8 4.8 0.00 0.00 0.00 83 1018.2
20260906035407 26 53 6.4 6.4 0.00 0.00 0.00 83 1017.9
20260906034902 26 45 4.8 4.8 0.00 0.00 0.00 82 1018.1
20260906034401 26 47 3.2 4.8 0.00 0.00 0.00 82 1017.9
20260906033858 26 52 4.8 4.8 0.00 0.00 0.00 82 1018.0
20260906033357 26 45 4.8 4.8 0.00 0.00 0.00 82 1017.8
20260906032853 26 49 3.2 3.2 0.00 0.00 0.00 82 1017.8
20260906032349 26 49 4.8 4.8 0.00 0.00 0.00 82 1017.8
20260906031844 26 49 4.8 4.8 0.00 0.00 0.00 82 1018.0
20260906031339 26 50 3.2 4.8 0.00 0.00 0.00 83 1017.7
20260906030839 25 35 3.2 3.2 0.00 0.00 0.00 84 1017.4
20260906030335 26 38 4.8 4.8 0.00 0.00 0.00 84 1017.7
20260906025835 26 109 3.2 3.2 0.00 0.00 0.00 82 1017.4
20260906025329 26 110 0.0 0.0 0.00 0.00 0.00 81 1017.4
20260906024828 26 110 0.0 0.0 0.00 0.00 0.00 79 1017.3
20260906024327 27 110 0.0 0.0 0.00 0.00 0.00 78 1017.2
20260906023823 27 110 0.0 0.0 0.00 0.00 0.00 78 1017.2
20260906023318 27 110 0.0 0.0 0.00 0.00 0.00 78 1017.1
20260906022814 27 110 0.0 0.0 0.00 0.00 0.00 78 1017.1
20260906022309 27 110 0.0 0.0 0.00 0.00 0.00 77 1017.0
20260906021805 27 110 0.0 0.0 0.00 0.00 0.00 77 1017.1
20260906021304 27 110 0.0 0.0 0.00 0.00 0.00 77 1017.1
20260906020759 27 110 0.0 0.0 0.00 0.00 0.00 76 1016.9
20260906020258 27 110 0.0 0.0 0.00 0.00 0.00 77 1016.7
20260906015758 27 110 0.0 0.0 0.00 0.00 0.00 77 1016.6
20260906015257 27 110 0.0 0.0 0.00 0.00 0.00 78 1016.6
20260906014751 27 110 0.0 0.0 0.00 0.00 0.00 78 1016.6
20260906014247 27 110 1.6 1.6 0.00 0.00 0.00 77 1016.5
20260906013743 27 110 1.6 1.6 0.00 0.00 0.00 76 1016.4
20260906013243 28 110 1.6 1.6 0.00 0.00 0.00 76 1016.5
20260906012739 28 110 1.6 1.6 0.00 0.00 0.00 74 1016.5
20260906012234 28 110 1.6 1.6 0.00 0.00 0.00 74 1016.3
20260906011729 28 110 3.2 3.2 0.00 0.00 0.00 73 1016.4
20260906011228 28 111 1.6 1.6 0.00 0.00 0.00 71 1016.3
20260906010724 29 111 1.6 1.6 0.00 0.00 0.00 69 1016.2
20260906010220 29 111 0.0 0.0 0.00 0.00 0.00 68 1016.3
20260906005715 30 111 0.0 0.0 0.00 0.00 0.00 67 1016.2
20260906005214 30 111 0.0 0.0 0.00 0.00 0.00 67 1016.2
20260906004713 30 111 0.0 0.0 0.00 0.00 0.00 65 1016.0
20260906004209 30 111 1.6 1.6 0.00 0.00 0.00 65 1016.1
20260906003704 30 111 3.2 3.2 0.00 0.00 0.00 64 1016.0
20260906003200 31 111 3.2 3.2 0.00 0.00 0.00 63 1016.0
20260906002659 31 111 3.2 3.2 0.00 0.00 0.00 63 1015.9
20260906002154 31 111 3.2 3.2 0.00 0.00 0.00 63 1016.0
20260906001650 31 110 4.8 3.2 0.00 0.00 0.00 62 1016.2
20260906001149 31 109 3.2 3.2 0.00 0.00 0.00 63 1016.0
20260906000645 31 109 3.2 3.2 0.00 0.00 0.00 62 1016.1
20260906000140 32 109 3.2 3.2 0.00 0.00 0.00 61 1016.1
20260905235639 32 128 4.8 4.8 0.00 0.00 0.00 60 1016.1
20260905235135 32 124 6.4 6.4 0.00 0.00 0.00 59 1016.2
20260905234630 32 117 6.4 6.4 0.00 0.00 0.00 59 1016.4
20260905234125 32 113 6.4 6.4 0.00 0.00 0.00 58 1016.3
20260905233620 32 103 6.4 6.4 0.00 0.00 0.00 57 1016.3
20260905233114 33 115 6.4 6.4 0.00 0.00 0.00 57 1016.5
20260905232610 33 93 3.2 4.8 0.00 0.00 0.00 56 1016.2
20260905232105 33 110 6.4 6.4 0.00 0.00 0.00 55 1016.2
20260905231559 33 98 8.0 9.7 0.00 0.00 0.00 55 1016.3
20260905231051 33 109 3.2 4.8 0.00 0.00 0.00 55 1016.0
20260905230550 33 115 6.4 6.4 0.00 0.00 0.00 55 1016.2
20260905230048 33 99 9.7 11.3 0.00 0.00 0.00 53 1016.2
20260905225548 33 78 4.8 4.8 0.00 0.00 0.00 54 1016.0
20260905225043 33 82 8.0 9.7 0.00 0.00 0.00 54 1016.2
20260905224538 33 111 3.2 3.2 0.00 0.00 0.00 52 1016.0
20260905224037 33 159 4.8 4.8 0.00 0.00 0.00 52 1016.1
20260905223535 33 145 3.2 3.2 0.00 0.00 0.00 52 1015.9
20260905223031 33 137 3.2 3.2 0.00 0.00 0.00 51 1016.0
20260905222530 33 141 1.6 1.6 0.00 0.00 0.00 52 1016.0
20260905222026 34 104 3.2 3.2 0.00 0.00 0.00 51 1016.0
20260905221522 33 60 4.8 3.2 0.00 0.00 0.00 50 1016.1
20260905221018 34 98 3.2 4.8 0.00 0.00 0.00 50 1016.2
20260905220514 34 161 4.8 4.8 0.00 0.00 0.00 52 1016.0
20260905220009 35 135 3.2 3.2 0.00 0.00 0.00 48 1016.0
20260905215503 35 169 0.0 0.0 0.00 0.00 0.00 51 1015.9
20260905215000 34 175 1.6 1.6 0.00 0.00 0.00 48 1015.9
20260905214455 34 161 4.8 4.8 0.00 0.00 0.00 50 1016.2
20260905213955 34 151 8.0 9.7 0.00 0.00 0.00 48 1016.2
20260905213451 34 169 3.2 3.2 0.00 0.00 0.00 50 1016.4
20260905212946 35 178 6.4 6.4 0.00 0.00 0.00 48 1016.1
20260905212441 35 236 3.2 3.2 0.00 0.00 0.00 45 1016.2
20260905211940 34 196 3.2 3.2 0.00 0.00 0.00 46 1016.4
20260905211436 34 205 6.4 6.4 0.00 0.00 0.00 45 1016.5
20260905210932 34 212 3.2 4.8 0.00 0.00 0.00 44 1016.5
20260905210432 34 216 4.8 4.8 0.00 0.00 0.00 45 1016.5
20260905205932 34 185 4.8 4.8 0.00 0.00 0.00 47 1016.6
20260905205427 33 191 3.2 3.2 0.00 0.00 0.00 47 1016.6
20260905204925 33 197 4.8 4.8 0.00 0.00 0.00 47 1016.9
20260905204422 33 198 4.8 4.8 0.00 0.00 0.00 47 1016.7
20260905203920 32 220 4.8 4.8 0.00 0.00 0.00 47 1016.9
20260905203416 32 231 9.7 9.7 0.00 0.00 0.00 47 1017.0
20260905202912 32 231 9.7 16.1 0.00 0.00 0.00 49 1017.0
20260905202407 34 198 17.7 20.9 0.00 0.00 0.00 49 1017.1
20260905201902 35 148 4.8 4.8 0.00 0.00 0.00 52 1016.9
20260905201358 34 80 4.8 9.7 0.00 0.00 0.00 52 1016.9
20260905200857 34 121 11.3 11.3 0.00 0.00 0.00 52 1017.2
20260905200353 34 56 9.7 11.3 0.00 0.00 0.00 50 1017.2
20260905195851 34 69 6.4 6.4 0.00 0.00 0.00 55 1017.4
20260905195347 33 72 6.4 9.7 0.00 0.00 0.00 55 1017.6
20260905194843 33 66 4.8 4.8 0.00 0.00 0.00 57 1017.4
20260905194342 33 42 8.0 9.7 0.00 0.00 0.00 56 1017.6
20260905193841 33 42 8.0 6.4 0.00 0.00 0.00 56 1017.4
20260905193336 33 34 9.7 12.9 0.00 0.00 0.00 57 1017.6
20260905192832 33 57 6.4 6.4 0.00 0.00 0.00 56 1017.6
20260905192328 33 72 4.8 9.7 0.00 0.00 0.00 56 1017.6
20260905191827 34 24 9.7 11.3 0.00 0.00 0.00 56 1017.6
20260905191326 35 28 12.9 14.5 0.00 0.00 0.00 53 1017.7
20260905190825 35 31 3.2 4.8 0.00 0.00 0.00 52 1017.8
20260905190324 35 81 3.2 4.8 0.00 0.00 0.00 51 1017.7
20260905185823 35 39 4.8 6.4 0.00 0.00 0.00 46 1017.8
20260905185319 35 36 8.0 9.7 0.00 0.00 0.00 46 1017.9
20260905184818 35 37 9.7 11.3 0.00 0.00 0.00 48 1018.0
20260905184318 35 46 6.4 4.8 0.00 0.00 0.00 51 1018.1
20260905183816 34 68 8.0 9.7 0.00 0.00 0.00 51 1017.9
20260905183312 33 58 8.0 9.7 0.00 0.00 0.00 51 1018.1
20260905182812 33 25 4.8 9.7 0.00 0.00 0.00 53 1018.1
20260905182311 33 105 9.7 11.3 0.00 0.00 0.00 51 1018.2
20260905181807 34 89 6.4 9.7 0.00 0.00 0.00 52 1018.1
20260905181307 34 28 1.6 0.0 0.00 0.00 0.00 53 1018.1
20260905180806 34 40 4.8 6.4 0.00 0.00 0.00 53 1018.2
20260905180301 34 102 9.7 9.7 0.00 0.00 0.00 51 1018.1
20260905175755 34 42 4.8 4.8 0.00 0.00 0.00 51 1018.2
20260905175250 34 69 3.2 3.2 0.00 0.00 0.00 53 1018.3
20260905174745 34 100 3.2 3.2 0.00 0.00 0.00 56 1018.3
20260905174241 34 67 3.2 3.2 0.00 0.00 0.00 53 1018.3
20260905173738 34 110 6.4 6.4 0.00 0.00 0.00 52 1018.3
20260905173233 34 28 4.8 6.4 0.00 0.00 0.00 53 1018.4
20260905172733 33 348 3.2 3.2 0.00 0.00 0.00 55 1018.4